Newark Heath, OH

12:08 PM EST on November 19, 2017 (GMT -0500)
Newark Heath

Weather History for KVTA - December, 2013

Change the Weather History Date:

Friday, December 20, 2013

  Actual Average Record
Temperature  
Mean Temperature 47 °F -  
Max Temperature 57 °F 39 °F 60 °F (1957)
Min Temperature 39 °F 24 °F -9 °F (1963)
Degree Days  
Heating Degree Days 18    
Moisture  
Dew Point 44 °F    
Average Humidity 75    
Maximum Humidity 89    
Minimum Humidity 54    
Precipitation  
Precipitation 0.04 in - - ()
Sea Level Pressure  
Sea Level Pressure 29.91 in    
Wind  
Wind Speed 6 mph (SSW)    
Max Wind Speed 13 mph    
Max Gust Speed 17 mph    
Visibility 9 miles    
Events Rain    
Averages and records for this station are not official NWS values.
T = Trace of Precipitation, MM = Missing Value Source: NWS Daily Summary

Daily Weather History Graph

Daily Weather History Graph

Search for Another Location

Airport or City:

Trip Planner

Search our weather history database for the weather conditions in past years. The results will help you decide how hot, cold, wet, or windy it might be!

Date:

Astronomy

Dec. 20, 2013 Rise Set
Actual Time 7:47 AM EST 5:07 PM EST
Civil Twilight 7:17 AM EST 5:38 PM EST
Nautical Twilight 6:43 AM EST 6:12 PM EST
Astronomical Twilight 6:10 AM EST 6:45 PM EST
Moon 8:27 PM EST (12/20) 9:41 AM EST (12/20)
Length of Visible Light 10h 20m
Length of Day
9h 19m
Waning Gibbous, 90% of the Moon is Illuminated
Dec 20
Waning Gibbous
Dec 25
Last Quarter
Jan 1
New
Jan 7
First Quarter
Jan 15
Full

Hourly Weather History & Observations

Time (EST) Temp. Windchill Dew Point Humidity Pressure Visibility Wind Dir Wind Speed Gust Speed Precip Events Conditions
12:54 AM 39.0 °F - 30.9 °F 73% 29.98 in 10.0 mi Calm Calm - N/A   Overcast
1:54 AM 39.9 °F - 32.0 °F 73% 29.96 in 10.0 mi Calm Calm - N/A   Overcast
2:54 AM 39.9 °F 37.8 °F 33.1 °F 77% 29.97 in 10.0 mi SSW 3.5 mph - N/A   Overcast
3:54 AM 46.0 °F 44.8 °F 32.0 °F 58% 29.96 in 10.0 mi SSW 3.5 mph - N/A   Overcast
4:54 AM 48.9 °F - 33.1 °F 54% 29.95 in 10.0 mi SSW 6.9 mph - N/A   Overcast
5:54 AM 50.0 °F - 34.0 °F 54% 29.93 in 10.0 mi South 8.1 mph - N/A   Overcast
6:54 AM 48.9 °F - 35.1 °F 59% 29.94 in 10.0 mi SSW 6.9 mph - N/A   Overcast
7:54 AM 48.0 °F - 37.9 °F 68% 29.94 in 10.0 mi SSW 8.1 mph - 0.01 in   Overcast
8:54 AM 50.0 °F - 39.0 °F 66% 29.94 in 10.0 mi SSW 10.4 mph - N/A   Overcast
9:52 AM 50.0 °F - 39.2 °F 66% 29.94 in 10.0 mi SSW 10.4 mph - 0.00 in   Overcast
9:54 AM 50.0 °F - 39.9 °F 68% 29.95 in 10.0 mi SSW 9.2 mph - 0.00 in Rain Light Rain
10:54 AM 50.0 °F - 41.0 °F 71% 29.95 in 10.0 mi SSW 8.1 mph - 0.00 in   Overcast
11:54 AM 51.1 °F - 41.0 °F 68% 29.92 in 10.0 mi SSW 11.5 mph - N/A   Overcast
12:54 PM 52.0 °F - 42.1 °F 69% 29.89 in 10.0 mi South 10.4 mph - N/A   Overcast
1:54 PM 54.0 °F - 45.0 °F 72% 29.88 in 10.0 mi SSW 10.4 mph - N/A   Overcast
2:54 PM 55.0 °F - 46.0 °F 72% 29.87 in 10.0 mi SSW 10.4 mph - N/A   Overcast
3:54 PM 53.1 °F - 48.0 °F 83% 29.87 in 10.0 mi SSW 8.1 mph - 0.03 in   Overcast
4:14 PM 53.6 °F - 48.2 °F 82% 29.87 in 10.0 mi SSW 11.5 mph - N/A   Overcast
4:54 PM 54.0 °F - 48.9 °F 83% 29.88 in 5.0 mi SSW 10.4 mph - N/A   Haze
5:33 PM 53.6 °F - 50.0 °F 88% 29.88 in 4.0 mi SSW 8.1 mph - N/A   Overcast
5:54 PM 53.1 °F - 50.0 °F 89% 29.89 in 4.0 mi SSW 8.1 mph - 0.00 in Rain Light Rain
6:21 PM 53.6 °F - 50.0 °F 88% 29.89 in 7.0 mi SSW 9.2 mph - 0.00 in   Overcast
6:54 PM 53.1 °F - 50.0 °F 89% 29.90 in 6.0 mi South 4.6 mph - 0.00 in Rain Light Rain
7:54 PM 54.0 °F - 50.0 °F 86% 29.89 in 10.0 mi South 10.4 mph 17.3 mph 0.00 in   Overcast
8:11 PM 55.4 °F - 51.8 °F 88% 29.87 in 10.0 mi South 12.7 mph - N/A   Overcast
8:54 PM 55.0 °F - 50.0 °F 83% 29.89 in 10.0 mi SSW 9.2 mph - N/A   Overcast
9:54 PM 55.0 °F - 50.0 °F 83% 29.88 in 10.0 mi SSW 4.6 mph - N/A   Overcast
10:34 PM 55.4 °F - 50.0 °F 82% 29.86 in 10.0 mi South 9.2 mph - 0.00 in   Overcast
10:47 PM 55.4 °F - 50.0 °F 82% 29.86 in 10.0 mi South 9.2 mph - 0.00 in   Overcast
10:54 PM 55.9 °F - 50.0 °F 80% 29.86 in 10.0 mi SSW 10.4 mph - 0.00 in   Overcast
11:54 PM 57.0 °F - 51.1 °F 81% 29.86 in 10.0 mi South 6.9 mph - N/A   Overcast